"Pseudo-MPEC" for A10oyKq

Created 2020 Aug 2 9:07:02 UT using Find_Orb

Click here for an explanation of pseudo-MPECs

 
 Astrometry: 
     A10oyKq  C2020 07 29.57757301 33 57.20 -31 51 19.9    ~7TFb 19.38oVNEOCPT08
     A10oyKq  C2020 07 29.58080301 33 56.80 -31 50 59.3    ~7TFb 19.27oVNEOCPT08
     A10oyKq  C2020 07 29.58863201 33 55.77 -31 50 08.7    ~7TFb 19.39oVNEOCPT08
     A10oyKq  C2020 07 29.60940101 33 52.97 -31 47 54.2    ~7TFb 19.46oVNEOCPT08
     A10oyKq  C2020 07 30.58717 01 32 09.64 -30 02 45.9    ~7UMM 20.1 oVNEOCPT08
     A10oyKq  C2020 07 30.58902 01 32 09.40 -30 02 34.4    ~7UMM 20.4 oVNEOCPT08
     A10oyKq  C2020 08 01.45872 01 28 52.25 -26 46 06.2    ~81BM 19.6 GVNEOCPI52
     A10oyKq  C2020 08 01.45973 01 28 52.10 -26 45 59.9    ~81BM 20.0 GVNEOCPI52
     A10oyKq  C2020 08 01.46074 01 28 51.96 -26 45 53.5    ~81BM 19.6 GVNEOCPI52
     A10oyKq  C2020 08 01.46174 01 28 51.86 -26 45 47.7    ~81BM 19.3 GVNEOCPI52
     A10oyKq KC2020 08 01-ZYHtAstrometry)redacted;38v5?s*h()qII?'dw?click,t96N88
     A10oyKq KC2020 08 01KJ*HD3[here]/p_)DjKforMCPQWexplanation;B.Z((Ms-MC7uhN88

Station data:
(I52) Steward Observatory, Mt. Lemmon Station  (N32.442547 W110.788920)
   US/Arizona.  Observers T. A. Pruyne, B. M. Africano, E. J. Christensen, G.
   A. Farneth, D. C. Fuls, A. R. Gibbs, A. D. Grauer, H. Gröller, J. A.
   Johnson, R. A. Kowalski, S. M. Larson, G. J. Leonard, D. Rankin, R. L.
   Seaman, F. C. Shelly. 1.0-m reflector + CCD.
(N88) Xingming Observatory #3, Nanshan  (N43.471787 E87.173220)  China.
(T08) ATLAS-MLO, Mauna Loa  (N19.536152 W155.576050)  US/Hawaii.  Observers
   L. Denneau, A. Heinze, H. Weiland, J. Tonry, H. Flewelling, A.
   Fitzsimmons, D. Young, B. Stalder. Measurers L. Denneau, A. Heinze, J.
   Tonry. 0.5-m f/2.0 Schmidt + CCD.

Orbital elements:  A10oyKq
   Perihelion 2020 Jul 15.435013 +/- 0.0333 TT = 10:26:25 (JD 2459045.935013)
Epoch 2020 Aug  1.0 TT = JDT 2459062.5   Earth MOID: 0.1060   AutoNEOCP
M   3.91677244 +/- 0.43             (J2000 ecliptic)
n   0.23644887 +/- 0.0262           Peri.  315.25492 +/- 0.12
a   2.59006832 +/- 0.191            Node   340.43790 +/- 0.24
e   0.5892254 +/- 0.0295            Incl.    9.89165 +/- 0.35
P   4.17                   H 21.6   G  0.15   U 10.3  
q 1.06393412 +/- 0.0023    Q 4.11620251 +/- 0.408
From 12 observations 2020 July 29-Aug. 1; mean residual 0".25
Residuals in arcseconds: 
200729 T08  .13-  .16-    200730 T08  .39-  .07+    200801 I52  .22-  .17+    
200729 T08  .23+  .31-    200730 T08  .34-  .18-    200801 I52  .15+  .20-    
200729 T08  .37+  .04-    200801 I52  .21+  .08-    200801 N88  .39+  .18+    
200729 T08  .08+  .63+    200801 I52  .07-  .00     200801 N88  .27-  .08-    

Ephemerides (geocentric):
Date (UTC) HH   RA              Dec         delta   r     elong  mag " sig PA
---- -- -- --  -------------   -----------  ------ ------ -----  --- ---- ---
2020 08 02 09  01 27 15.012   -25 11 18.90  .14931 1.0883 115.9 19.8 2.53 163
2020 08 02 10  01 27 10.646   -25 07 04.93  .14937 1.0884 115.9 19.8 2.55 163
2020 08 02 11  01 27 06.281   -25 02 51.17  .14943 1.0885 116.0 19.8 2.57 163
2020 08 02 12  01 27 01.916   -24 58 37.62  .14949 1.0886 116.0 19.8 2.59 163
2020 08 02 13  01 26 57.551   -24 54 24.29  .14955 1.0887 116.0 19.8 2.61 164
2020 08 02 14  01 26 53.187   -24 50 11.16  .14961 1.0888 116.1 19.8 2.63 164
2020 08 02 15  01 26 48.822   -24 45 58.25  .14967 1.0890 116.1 19.8 2.64 164
2020 08 02 16  01 26 44.458   -24 41 45.56  .14973 1.0891 116.2 19.8 2.66 164
2020 08 02 17  01 26 40.094   -24 37 33.08  .14980 1.0892 116.2 19.8 2.68 164
2020 08 02 18  01 26 35.730   -24 33 20.82  .14986 1.0893 116.2 19.8 2.70 164
2020 08 02 19  01 26 31.367   -24 29 08.77  .14992 1.0894 116.3 19.8 2.72 164
2020 08 02 20  01 26 27.003   -24 24 56.94  .14998 1.0895 116.3 19.8 2.75 164
2020 08 02 21  01 26 22.640   -24 20 45.32  .15004 1.0896 116.4 19.8 2.77 164
2020 08 02 22  01 26 18.277   -24 16 33.93  .15011 1.0897 116.4 19.8 2.79 164
2020 08 02 23  01 26 13.914   -24 12 22.75  .15017 1.0899 116.4 19.8 2.81 164
2020 08 03 00  01 26 09.551   -24 08 11.79  .15023 1.0900 116.5 19.8 2.83 164
2020 08 03 01  01 26 05.188   -24 04 01.05  .15029 1.0901 116.5 19.8 2.85 165
2020 08 03 02  01 26 00.825   -23 59 50.53  .15036 1.0902 116.5 19.8 2.88 165
2020 08 03 03  01 25 56.463   -23 55 40.23  .15042 1.0903 116.6 19.8 2.90 165
2020 08 03 04  01 25 52.100   -23 51 30.15  .15049 1.0904 116.6 19.8 2.92 165
2020 08 03 05  01 25 47.738   -23 47 20.29  .15055 1.0906 116.7 19.8 2.95 165
2020 08 03 06  01 25 43.375   -23 43 10.65  .15061 1.0907 116.7 19.8 2.97 165
2020 08 03 07  01 25 39.013   -23 39 01.23  .15068 1.0908 116.7 19.8 2.99 165
2020 08 03 08  01 25 34.651   -23 34 52.04  .15074 1.0909 116.8 19.8 3.02 165
2020 08 03 09  01 25 30.288   -23 30 43.07  .15081 1.0910 116.8 19.8 3.04 165
2020 08 03 10  01 25 25.926   -23 26 34.33  .15087 1.0911 116.9 19.8 3.07 165
2020 08 03 11  01 25 21.564   -23 22 25.80  .15094 1.0913 116.9 19.8 3.09 165
2020 08 03 12  01 25 17.202   -23 18 17.51  .15100 1.0914 116.9 19.8 3.12 165
2020 08 03 13  01 25 12.839   -23 14 09.43  .15107 1.0915 117.0 19.8 3.15 165
2020 08 03 14  01 25 08.477   -23 10 01.59  .15114 1.0916 117.0 19.8 3.17 165
2020 08 03 15  01 25 04.114   -23 05 53.96  .15120 1.0917 117.1 19.8 3.20 165
2020 08 03 16  01 24 59.752   -23 01 46.57  .15127 1.0918 117.1 19.8 3.22 165
2020 08 03 17  01 24 55.390   -22 57 39.40  .15133 1.0920 117.1 19.8 3.25 165
2020 08 03 18  01 24 51.027   -22 53 32.46  .15140 1.0921 117.2 19.8 3.28 165
2020 08 03 19  01 24 46.664   -22 49 25.75  .15147 1.0922 117.2 19.8 3.31 165
2020 08 03 20  01 24 42.302   -22 45 19.26  .15154 1.0923 117.3 19.8 3.34 165
2020 08 03 21  01 24 37.939   -22 41 13.00  .15160 1.0924 117.3 19.8 3.36 165
2020 08 03 22  01 24 33.576   -22 37 06.98  .15167 1.0926 117.3 19.8 3.39 165
2020 08 03 23  01 24 29.213   -22 33 01.18  .15174 1.0927 117.4 19.8 3.42 166
2020 08 04 00  01 24 24.850   -22 28 55.61  .15181 1.0928 117.4 19.8 3.45 166
2020 08 04 01  01 24 20.486   -22 24 50.27  .15188 1.0929 117.5 19.8 3.48 166
2020 08 04 02  01 24 16.123   -22 20 45.17  .15194 1.0930 117.5 19.8 3.51 166
2020 08 04 03  01 24 11.759   -22 16 40.29  .15201 1.0932 117.5 19.8 3.54 166
2020 08 04 04  01 24 07.395   -22 12 35.65  .15208 1.0933 117.6 19.8 3.57 166
2020 08 04 05  01 24 03.031   -22 08 31.24  .15215 1.0934 117.6 19.8 3.60 166
2020 08 04 06  01 23 58.667   -22 04 27.06  .15222 1.0935 117.7 19.8 3.63 166
2020 08 04 07  01 23 54.303   -22 00 23.11  .15229 1.0936 117.7 19.8 3.66 166
2020 08 04 08  01 23 49.938   -21 56 19.40  .15236 1.0938 117.7 19.8 3.70 166